Vertical_Velocity
1 1 0 -0 -1 -1 -0 1 2 1 -1 -3 -3 -4 -4 -4 -5 -5 -5 -2 -0 -1 -1 -2 -2 -2 -1 -0 0 0 -0 -1 -1 -1 -0 1 1 1 -0 -1 -2 -1 2 6 9 11 12 11 10 11 11 12 11 10 10 12 16 19 20 20 19 15 11 8 8 7 7 5 2
-0 -1 -0 0 1 1 1 0 -1 -2 -3 -4 -4 -4 -4 -4 -4 -4 -3 -1 -1 -0 -0 -1 -2 -1 -1 -0 1 1 0 -0 -1 -1 -0 -0 -0 -1 -2 -2 -1 2 6 9 10 10 9 7 6 7 8 9 9 10 12 14 15 16 17 16 14 13 11 10 9 7 6 3 2
0 1 1 2 1 1 -1 -3 -4 -5 -5 -5 -4 -3 -2 -3 -2 -2 -3 -2 -2 -1 -1 -2 -1 -1 0 1 2 2 2 1 1 0 -0 -1 -2 -3 -3 -1 2 6 10 14 12 9 6 4 4 4 6 8 9 10 13 16 14 13 12 12 12 12 10 8 5 3 2 1 1
0 1 1 0 -1 -3 -5 -6 -6 -5 -4 -3 -2 -1 -1 -1 -1 -2 -3 -3 -2 -2 -2 -2 -2 -1 -1 -0 -0 0 0 1 1 1 0 -1 -1 1 3 6 9 14 18 18 14 11 9 9 10 12 13 13 14 15 15 15 12 11 12 14 12 9 6 2 -0 -1 -0 1 2
-0 -1 -2 -3 -5 -6 -7 -7 -5 -4 -3 -2 0 1 1 -1 -2 -3 -3 -3 -2 -2 -1 -1 -2 -3 -3 -3 -4 -4 -4 -3 -1 0 1 1 0 1 3 7 12 16 18 16 12 10 10 11 12 12 11 10 10 10 11 13 15 17 17 14 8 3 -0 -2 -2 -1 1 3 3
-2 -3 -4 -5 -6 -6 -5 -3 -2 -1 -1 -1 1 1 -1 -4 -4 -3 -2 -2 -1 -1 -1 -1 -1 -2 -3 -4 -5 -5 -5 -3 -1 -0 -1 -4 -7 -7 -6 -4 -0 2 3 2 0 1 3 6 7 7 7 7 9 11 12 14 17 17 13 6 2 -1 -2 -1 -0 1 3 3 2
-3 -3 -3 -3 -2 -2 -1 -1 0 -0 -1 -1 -1 -2 -4 -4 -3 -1 -1 -0 0 0 -0 -1 -2 -3 -4 -4 -4 -3 -1 2 3 2 -1 -5 -6 -5 -3 -0 3 4 3 1 1 3 5 7 8 9 11 12 11 9 7 6 6 4 2 -0 -1 -1 -0 0 1 1 1 1 -0
-0 -0 -0 -1 -1 -1 -1 -1 -1 -1 -1 -2 -2 -2 -2 -1 0 1 1 1 0 -1 -1 -2 -3 -3 -3 -2 0 3 7 12 13 13 12 10 8 8 9 13 18 19 18 15 15 15 14 13 12 11 11 9 6 3 0 -1 -1 -2 -2 -3 -3 -2 -2 -1 -1 -1 -1 -1 -2
2 1 -0 -1 -1 -1 -1 -2 -2 -2 -2 -2 -1 -0 1 1 2 1 1 -1 -2 -2 -2 -1 -1 -0 1 2 5 9 14 19 21 22 22 22 22 21 21 22 24 24 23 21 19 16 14 12 10 8 7 5 3 1 -0 -1 -1 -2 -3 -3 -3 -3 -2 -1 -0 -1 -1 -1 -2
0 -1 -2 -1 -2 -2 -2 -2 -2 -2 -1 0 1 2 2 1 -0 -0 -0 0 1 2 3 3 3 3 4 5 9 13 17 18 18 17 16 15 14 13 12 12 12 12 12 12 11 9 8 7 6 5 4 2 1 -1 -2 -2 -3 -3 -3 -3 -2 -1 0 1 1 1 -0 -1 -2
-2 -2 -2 -1 -2 -2 -1 -1 -2 -1 -1 0 0 1 1 2 2 2 3 4 4 4 5 5 5 7 8 9 11 12 12 10 8 5 3 1 0 1 2 3 4 4 5 4 4 4 3 2 2 1 -0 -1 -3 -3 -4 -4 -3 -2 -1 -0 1 1 1 1 1 0 -1 -2 -2
-2 -2 -1 -1 -1 -2 -2 -2 -2 -1 1 3 5 6 6 7 6 6 5 4 4 3 3 3 6 8 10 11 10 7 4 2 1 1 0 -0 0 1 2 3 2 2 1 -0 -1 -1 -1 -2 -2 -3 -3 -4 -4 -4 -3 -2 -1 0 1 1 2 1 0 -0 -1 -1 -1 -1 -1
-1 -1 -1 -2 -2 -2 -1 1 4 7 10 12 12 11 11 9 8 7 7 6 6 5 5 6 7 9 11 11 9 6 5 4 5 6 6 6 5 3 2 1 -1 -2 -3 -3 -3 -3 -3 -2 -3 -3 -4 -4 -3 -2 -1 0 1 1 1 0 -0 -1 -2 -2 -1 -1 -1 -1 -1
-1 -2 -2 -2 1 5 9 13 14 14 13 12 9 8 8 9 9 9 9 9 9 9 9 10 11 11 11 11 9 9 8 8 8 8 7 6 4 2 -0 -2 -2 -3 -3 -3 -3 -3 -3 -3 -3 -4 -4 -3 -2 -1 0 1 0 -1 -1 -2 -3 -2 -2 -1 -1 -0 -0 -1 -1
-2 -0 3 7 12 16 17 15 11 8 5 5 6 7 8 9 10 10 10 10 10 9 9 10 11 10 9 8 7 6 6 5 4 3 2 1 -0 -1 -2 -2 -3 -3 -3 -4 -4 -5 -5 -5 -6 -5 -5 -4 -3 -2 -1 -1 -1 -2 -2 -2 -1 -1 -1 -1 -1 -0 -0 -0 -1
4 8 12 15 14 12 8 5 3 3 3 6 8 9 9 9 8 8 8 9 8 8 8 8 7 7 5 4 3 2 1 1 0 -0 -1 -2 -2 -2 -3 -3 -4 -5 -6 -7 -8 -8 -9 -9 -9 -8 -7 -6 -4 -3 -2 -1 -1 -0 -0 -0 -0 -1 -1 -1 -1 -0 -0 -1 -1
13 14 14 10 5 2 1 2 4 6 7 8 9 8 7 6 5 5 5 5 4 4 4 4 3 3 2 1 1 0 -1 -1 -1 -2 -3 -3 -4 -4 -5 -6 -7 -9 -10 -11 -11 -11 -11 -10 -9 -8 -7 -5 -3 -2 -1 0 1 1 0 -0 -0 -1 -1 -1 -1 -1 -1 -1 -1
15 13 10 6 3 3 5 8 9 10 9 8 6 5 4 2 2 2 1 1 0 0 0 0 0 0 -0 -0 -1 -1 -1 -2 -3 -4 -5 -6 -6 -7 -8 -9 -10 -11 -11 -11 -11 -10 -9 -7 -6 -4 -3 -2 -1 0 1 1 0 -0 -1 -1 -1 -1 -2 -2 -2 -2 -2 -2 -2
12 10 9 8 8 9 10 11 10 9 7 5 3 2 1 0 -0 -0 -1 -1 -1 -1 -1 -1 -1 -1 -1 -2 -2 -3 -3 -5 -6 -6 -7 -8 -8 -9 -9 -9 -9 -8 -7 -6 -5 -4 -3 -2 -1 0 1 1 1 1 0 -0 -1 -1 -2 -2 -2 -2 -3 -3 -3 -3 -3 -3 -3
10 10 9 9 9 10 9 8 6 4 2 0 -1 -1 -1 -1 -1 -1 -1 -1 -1 -2 -2 -2 -2 -3 -3 -4 -5 -6 -7 -7 -8 -9 -9 -8 -8 -7 -6 -5 -3 -2 -1 -0 0 1 1 1 1 1 1 1 0 -0 -1 -1 -1 -2 -2 -3 -3 -3 -3 -3 -3 -3 -3 -3 -3
8 8 7 6 6 5 3 2 -0 -1 -2 -2 -2 -2 -1 -2 -2 -2 -3 -3 -3 -4 -4 -4 -5 -5 -6 -7 -8 -8 -9 -9 -8 -7 -6 -5 -4 -3 -2 -1 0 1 1 1 1 1 1 1 1 1 0 0 -0 -1 -1 -1 -2 -2 -3 -3 -3 -3 -3 -3 -2 -2 -2 -2 -2
5 4 2 1 -0 -1 -3 -4 -4 -3 -3 -2 -2 -2 -3 -3 -4 -4 -5 -5 -5 -6 -6 -6 -6 -7 -7 -7 -7 -7 -6 -5 -4 -3 -2 -2 -1 -0 0 1 1 1 1 1 1 1 1 0 0 -0 -0 -0 -1 -1 -1 -1 -2 -2 -2 -2 -2 -2 -1 -1 -1 -1 -1 -1 -1
-1 -2 -3 -4 -5 -5 -5 -4 -4 -3 -2 -2 -3 -3 -3 -4 -5 -5 -5 -5 -5 -5 -5 -5 -5 -5 -4 -4 -3 -3 -2 -1 -1 -1 -0 -0 0 0 0 0 0 0 0 0 0 0 0 -0 -0 -0 -0 -0 -1 -1 -1 -1 -1 -1 -1 -1 -1 -1 -1 -0 -0 -0 -1 -1 -1
-5 -6 -6 -7 -6 -5 -4 -3 -2 -2 -2 -2 -2 -2 -2 -3 -3 -3 -3 -3 -3 -3 -3 -3 -2 -2 -1 -1 -1 -0 -0 -0 -0 -0 -0 -0 -0 -0 -0 -0 -0 -0 -0 -0 -0 0 -0 -0 -0 -0 0 0 0 -0 -0 0 0 0 -0 -0 -0 -1 -1 -1 -1 -1 -1 -1 -1
-7 -7 -6 -6 -4 -3 -2 -1 -1 -1 -1 -1 -1 -1 -1 -2 -2 -2 -2 -2 -2 -1 -1 -1 -1 -1 -1 -1 -0 -0 -0 -0 -0 -0 -0 -0 -0 -0 -0 -0 -0 -0 -0 -0 -0 0 0 0 0 0 0 0 1 1 0 0 0 0 -0 -0 -1 -1 -1 -1 -1 -1 -1 -1 -1
-5 -4 -3 -2 -1 -0 -0 0 -0 -0 -1 -1 -1 -1 -1 -1 -1 -1 -1 -1 -1 -1 -1 -1 -1 -1 -1 -1 -1 -1 -1 -1 -1 -1 -1 -0 -0 -0 -0 -0 -0 -0 0 0 0 0 0 0 0 0 0 0 0 0 0 -0 -0 -1 -1 -1 -2 -2 -2 -2 -3 -3 -3 -3 -2
-1 0 1 1 1 1 0 -0 -1 -1 -1 -1 -1 -1 -1 -1 -1 -1 -1 -1 -1 -1 -1 -1 -1 -1 -1 -1 -1 -1 -1 -1 -0 -0 0 0 0 0 0 0 0 0 0 0 0 -0 -0 -1 -1 -1 -1 -1 -1 -1 -1 -1 -2 -2 -2 -2 -3 -3 -3 -3 -3 -3 -3 -3 -3
2 2 1 1 0 -0 -0 -1 -1 -1 -1 -1 -1 -1 -1 -1 -1 -1 -1 -1 -1 -0 -0 -0 -0 -0 -0 0 0 0 0 0 1 1 1 1 1 1 1 1 0 -0 -0 -1 -1 -1 -2 -2 -2 -3 -3 -3 -3 -3 -3 -3 -3 -3 -3 -3 -3 -3 -2 -2 -2 -1 -1 -1 -1
1 1 0 -0 -0 -1 -1 -1 -1 -1 -1 -1 -1 -1 -1 -1 -0 -0 -0 -0 0 0 0 0 1 1 1 1 1 1 1 1 1 1 0 -0 -0 -1 -1 -1 -1 -2 -2 -2 -3 -3 -4 -4 -4 -5 -5 -5 -5 -4 -4 -3 -3 -2 -2 -1 -1 -1 -1 -0 0 1 1 1 1
0 0 -0 -1 -1 -1 -1 -1 -1 -1 -0 -0 -0 -0 -0 -0 0 0 0 0 0 0 1 1 0 0 0 0 0 -0 -0 -1 -1 -1 -2 -2 -3 -3 -3 -3 -3 -4 -4 -4 -4 -4 -5 -4 -4 -4 -4 -4 -3 -3 -2 -2 -1 -0 0 1 1 1 1 0 1 1 1 2 2
-0 -0 -0 -0 -0 -0 -0 -0 -0 0 0 -0 -0 -0 -0 -0 -0 -0 -0 -0 -0 -1 -1 -1 -1 -2 -2 -2 -2 -2 -3 -3 -3 -3 -3 -4 -4 -4 -5 -4 -4 -4 -4 -3 -3 -3 -3 -3 -2 -2 -2 -2 -1 -1 -1 -0 -0 -0 0 1 1 1 1 0 0 0 1 1 1
0 0 0 0 0 0 0 0 -0 -0 -0 -1 -1 -1 -1 -1 -1 -2 -2 -2 -3 -3 -3 -3 -4 -4 -4 -4 -4 -4 -4 -4 -4 -4 -4 -4 -4 -4 -4 -4 -3 -3 -3 -2 -2 -2 -2 -2 -2 -2 -2 -2 -2 -1 -1 -1 -1 -1 -1 -0 0 0 0 -0 -0 -0 -0 0 0
0 0 0 0 -0 -0 -1 -1 -1 -1 -2 -2 -2 -3 -3 -3 -4 -4 -4 -4 -4 -4 -4 -4 -4 -4 -4 -4 -4 -4 -4 -4 -4 -3 -3 -3 -2 -2 -2 -2 -2 -2 -2 -2 -2 -2 -2 -2 -2 -3 -3 -3 -3 -2 -2 -2 -2 -2 -1 -1 -1 -0 0 -0 -0 -1 -0 -0 -0
-0 -1 -1 -1 -2 -2 -2 -3 -3 -3 -3 -4 -4 -4 -4 -4 -4 -4 -4 -4 -4 -4 -3 -3 -3 -3 -3 -3 -3 -3 -3 -3 -3 -2 -2 -2 -1 -1 -1 -2 -2 -2 -2 -2 -2 -2 -2 -2 -3 -3 -4 -4 -3 -3 -2 -2 -3 -2 -2 -1 -1 -1 -0 -0 -1 -0 -0 -0 -0
-2 -3 -3 -3 -3 -4 -4 -4 -4 -4 -4 -4 -3 -3 -3 -3 -3 -3 -3 -3 -3 -3 -3 -3 -2 -2 -2 -2 -2 -1 -2 -2 -2 -1 -1 -1 -1 -1 -1 -1 -2 -2 -3 -3 -3 -3 -2 -2 -3 -3 -3 -4 -4 -3 -3 -2 -3 -3 -2 -1 -1 -1 -1 -1 -1 -1 -0 -0 -0
-3 -3 -3 -3 -3 -3 -3 -3 -3 -3 -2 -2 -2 -2 -2 -2 -2 -2 -2 -2 -2 -2 -2 -2 -2 -1 -1 -1 -1 -1 -1 -1 -1 -1 -1 -1 -1 -1 -1 -1 -1 -2 -3 -3 -3 -3 -3 -2 -3 -3 -3 -4 -4 -3 -3 -3 -3 -2 -2 -2 -2 -1 -1 -1 -1 -1 -0 -0 -0
-2 -2 -2 -2 -2 -2 -2 -2 -1 -1 -1 -2 -2 -2 -2 -2 -1 -1 -1 -1 -1 -1 -1 -1 -1 -1 -1 -1 -1 -2 -2 -2 -2 -2 -2 -2 -1 -1 -1 -1 -0 -1 -2 -3 -3 -3 -3 -2 -3 -3 -3 -4 -4 -4 -3 -3 -3 -2 -2 -2 -2 -1 -1 -1 -1 -1 -1 -1 -1
-1 -1 -1 -1 -1 -1 -1 -1 -1 -1 -1 -1 -1 -1 -1 -1 -1 -1 -1 -0 -0 -1 -1 -1 -1 -2 -2 -2 -2 -2 -3 -3 -3 -3 -3 -3 -2 -2 -1 -1 -0 -0 -1 -2 -3 -3 -3 -2 -2 -3 -3 -3 -4 -4 -3 -3 -3 -2 -2 -2 -2 -1 -1 -1 -2 -1 -1 -0 -1
-0 -0 -0 -0 -1 -1 -1 -1 -1 -1 -1 -1 -1 -1 -1 -1 -1 -1 -1 -1 -1 -1 -1 -1 -2 -2 -2 -2 -2 -2 -2 -3 -3 -3 -3 -3 -3 -2 -2 -2 -1 -0 -0 -1 -2 -2 -2 -2 -2 -3 -3 -4 -4 -4 -4 -3 -3 -2 -2 -2 -2 -2 -1 -1 -2 -2 -1 1 0
-1 -1 -1 -1 -1 -1 -1 -1 -1 -1 -1 -1 -1 -1 -1 -1 -1 -2 -2 -2 -2 -2 -2 -2 -2 -2 -2 -2 -2 -1 -1 -2 -2 -3 -3 -3 -3 -3 -3 -3 -2 -1 -1 -1 -2 -2 -3 -3 -2 -3 -3 -4 -4 -4 -4 -3 -3 -2 -2 -1 -2 -2 -2 -1 -1 -1 -1 -0 1
-1 -2 -1 -1 -1 -1 -1 -1 -1 -1 -1 -1 -1 -1 -1 -1 -2 -2 -2 -2 -3 -3 -2 -2 -2 -2 -2 -2 -2 -2 -1 -1 -2 -2 -3 -3 -3 -3 -3 -3 -3 -2 -1 -1 -2 -2 -3 -3 -2 -3 -3 -3 -4 -4 -3 -3 -3 -3 -2 -2 -2 -2 -2 -2 -1 -0 -0 -1 1
Height
3038 3040 3041 3042 3043 3044 3045 3046 3047 3048 3049 3049 3050 3051 3052 3052 3053 3053 3053 3053 3053 3053 3053 3053 3053 3054 3055 3055 3056 3056 3056 3056 3055 3056 3056 3056 3056 3057 3058 3058 3059 3059 3059 3059 3060 3060 3061 3060 3060 3060 3060 3060 3060 3061 3062 3063 3064 3065 3065 3065 3065 3064 3064 3063 3063 3063 3063 3064 3064
3037 3038 3039 3041 3042 3043 3043 3044 3045 3046 3047 3048 3049 3050 3050 3050 3050 3050 3050 3050 3050 3051 3051 3051 3051 3052 3052 3053 3053 3053 3053 3053 3053 3053 3054 3054 3054 3055 3055 3055 3056 3057 3057 3058 3058 3058 3058 3058 3058 3058 3058 3058 3058 3059 3060 3061 3062 3062 3062 3062 3062 3062 3061 3061 3061 3061 3061 3062 3062
3036 3037 3038 3039 3040 3041 3042 3042 3043 3045 3046 3047 3048 3048 3048 3048 3048 3047 3047 3047 3048 3048 3048 3048 3049 3049 3050 3050 3051 3051 3051 3051 3052 3052 3052 3053 3053 3053 3053 3053 3054 3054 3055 3055 3055 3055 3055 3055 3055 3055 3055 3056 3056 3057 3058 3058 3059 3059 3059 3059 3059 3058 3058 3058 3058 3058 3058 3059 3059
3034 3035 3036 3037 3038 3039 3040 3041 3042 3043 3044 3045 3045 3046 3045 3045 3044 3044 3044 3044 3045 3045 3046 3046 3046 3047 3047 3048 3048 3048 3048 3049 3049 3050 3050 3051 3051 3051 3052 3052 3053 3053 3054 3053 3053 3053 3053 3053 3054 3054 3055 3055 3055 3055 3056 3057 3057 3057 3057 3057 3056 3055 3054 3055 3055 3055 3056 3057 3057
3033 3034 3035 3036 3037 3038 3039 3040 3041 3042 3042 3043 3043 3043 3043 3042 3042 3042 3042 3042 3043 3043 3043 3043 3043 3044 3044 3045 3045 3046 3046 3047 3048 3048 3048 3049 3049 3049 3049 3050 3051 3051 3051 3051 3051 3051 3051 3052 3052 3052 3052 3053 3053 3053 3053 3054 3054 3054 3053 3053 3052 3052 3052 3052 3053 3053 3054 3055 3055
3031 3033 3033 3035 3036 3036 3037 3038 3039 3039 3039 3040 3040 3040 3039 3039 3039 3039 3040 3040 3041 3041 3041 3041 3042 3042 3042 3043 3043 3043 3044 3045 3045 3046 3045 3045 3045 3045 3045 3045 3046 3046 3047 3047 3047 3047 3048 3048 3048 3049 3049 3050 3050 3051 3051 3051 3051 3050 3050 3049 3049 3049 3050 3051 3051 3052 3053 3053 3053
3030 3031 3032 3033 3034 3035 3035 3036 3036 3037 3037 3037 3037 3037 3037 3037 3037 3038 3038 3038 3039 3039 3039 3040 3040 3040 3041 3041 3041 3041 3042 3042 3043 3042 3042 3042 3042 3043 3044 3044 3044 3044 3044 3044 3044 3045 3045 3046 3046 3047 3047 3048 3048 3048 3048 3047 3047 3047 3047 3047 3047 3048 3048 3049 3049 3050 3050 3050 3050
3028 3029 3030 3031 3032 3033 3033 3033 3034 3034 3034 3034 3034 3034 3035 3035 3036 3036 3036 3037 3037 3038 3038 3038 3039 3039 3039 3039 3040 3040 3041 3041 3041 3041 3041 3041 3041 3042 3043 3044 3044 3044 3043 3043 3043 3043 3043 3043 3043 3044 3044 3044 3044 3044 3043 3044 3043 3044 3044 3045 3045 3046 3046 3046 3047 3047 3047 3048 3048
3027 3028 3028 3029 3030 3030 3031 3031 3032 3032 3032 3032 3032 3033 3033 3033 3034 3034 3035 3035 3036 3036 3037 3037 3038 3038 3038 3038 3038 3039 3039 3040 3040 3040 3040 3040 3040 3041 3041 3042 3042 3041 3041 3041 3040 3040 3040 3040 3040 3040 3040 3041 3041 3041 3041 3041 3042 3042 3042 3043 3043 3043 3044 3044 3045 3045 3045 3045 3045
3025 3026 3027 3027 3028 3028 3029 3029 3030 3030 3030 3030 3031 3031 3032 3032 3033 3033 3034 3034 3035 3035 3036 3036 3036 3037 3037 3037 3038 3038 3038 3038 3038 3038 3038 3038 3038 3038 3038 3038 3037 3037 3037 3037 3037 3037 3037 3037 3037 3038 3038 3038 3038 3038 3039 3039 3039 3039 3040 3040 3040 3041 3042 3042 3043 3043 3043 3043 3043
3023 3024 3025 3026 3027 3027 3028 3028 3028 3028 3029 3029 3030 3030 3031 3031 3032 3033 3033 3034 3034 3034 3035 3035 3035 3036 3036 3037 3037 3037 3037 3037 3036 3036 3036 3036 3035 3035 3035 3035 3035 3034 3034 3034 3034 3034 3034 3035 3035 3035 3035 3035 3036 3036 3037 3037 3037 3038 3038 3038 3038 3039 3039 3040 3040 3041 3041 3041 3041
3022 3023 3024 3025 3025 3026 3026 3027 3027 3027 3028 3028 3029 3030 3030 3031 3031 3032 3032 3033 3033 3033 3033 3034 3034 3035 3035 3035 3035 3035 3035 3035 3035 3035 3035 3035 3035 3035 3034 3034 3034 3034 3034 3034 3033 3033 3033 3033 3033 3033 3033 3034 3034 3035 3035 3035 3036 3036 3036 3037 3037 3038 3038 3038 3038 3038 3038 3038 3038
3021 3022 3023 3023 3024 3024 3025 3025 3026 3027 3028 3028 3028 3029 3029 3030 3030 3030 3031 3031 3032 3032 3033 3033 3033 3033 3033 3033 3033 3033 3033 3033 3034 3034 3034 3034 3034 3034 3034 3034 3033 3033 3033 3033 3033 3032 3032 3032 3032 3032 3032 3033 3033 3034 3034 3035 3035 3035 3036 3036 3036 3036 3036 3036 3037 3037 3036 3036 3036
3019 3020 3021 3022 3023 3023 3023 3024 3025 3026 3027 3027 3027 3028 3028 3029 3029 3029 3030 3030 3030 3031 3031 3031 3031 3031 3031 3031 3031 3031 3031 3032 3032 3032 3033 3033 3033 3033 3033 3033 3032 3032 3032 3031 3031 3031 3031 3030 3030 3031 3031 3032 3032 3033 3034 3034 3034 3035 3035 3035 3035 3035 3035 3034 3034 3034 3033 3033 3033
3018 3019 3020 3021 3022 3023 3023 3024 3025 3026 3026 3026 3027 3027 3028 3028 3028 3028 3029 3029 3029 3029 3029 3029 3029 3029 3030 3030 3030 3030 3030 3030 3031 3031 3031 3031 3031 3031 3031 3031 3031 3031 3030 3030 3029 3029 3029 3029 3029 3030 3030 3031 3032 3033 3033 3033 3034 3034 3033 3033 3033 3033 3032 3032 3032 3031 3031 3030 3030
3017 3018 3019 3020 3021 3022 3023 3024 3024 3025 3025 3026 3026 3027 3027 3027 3027 3027 3027 3027 3027 3028 3028 3028 3028 3028 3028 3028 3029 3029 3029 3029 3029 3030 3030 3030 3030 3030 3030 3030 3029 3029 3028 3028 3028 3028 3028 3028 3028 3029 3030 3030 3031 3032 3032 3032 3032 3032 3032 3031 3031 3030 3029 3029 3028 3028 3028 3027 3027
3016 3017 3018 3018 3020 3021 3022 3023 3023 3024 3024 3025 3025 3025 3025 3025 3025 3026 3026 3026 3026 3027 3027 3027 3027 3027 3027 3028 3028 3028 3028 3028 3028 3029 3029 3029 3028 3028 3028 3028 3027 3027 3026 3026 3026 3026 3027 3027 3028 3028 3029 3030 3030 3031 3031 3030 3030 3029 3029 3028 3028 3027 3027 3026 3026 3025 3024 3024 3023
3015 3016 3017 3018 3020 3021 3022 3022 3023 3023 3023 3024 3024 3024 3024 3024 3025 3025 3025 3025 3026 3026 3026 3026 3027 3027 3027 3027 3028 3028 3028 3028 3028 3028 3028 3027 3027 3027 3026 3026 3025 3025 3025 3025 3026 3026 3026 3027 3028 3028 3028 3029 3029 3028 3028 3028 3027 3026 3026 3025 3025 3024 3024 3023 3023 3022 3021 3021 3020
3014 3016 3017 3018 3019 3020 3021 3021 3022 3022 3022 3023 3023 3023 3023 3024 3024 3025 3025 3025 3026 3026 3026 3027 3027 3027 3027 3027 3027 3027 3027 3027 3026 3026 3026 3025 3025 3025 3025 3025 3025 3025 3025 3026 3026 3026 3027 3027 3027 3027 3027 3027 3026 3026 3025 3025 3024 3023 3023 3023 3022 3021 3021 3020 3019 3018 3018 3017 3016
3014 3015 3016 3017 3018 3019 3019 3020 3020 3021 3021 3022 3022 3023 3024 3024 3025 3025 3026 3026 3026 3027 3027 3027 3027 3027 3027 3026 3026 3026 3025 3025 3025 3024 3024 3024 3024 3024 3025 3025 3025 3025 3025 3026 3026 3025 3025 3025 3025 3025 3024 3024 3023 3023 3022 3022 3021 3021 3020 3019 3018 3018 3017 3016 3016 3015 3014 3013 3013
3013 3014 3015 3016 3017 3018 3018 3019 3019 3020 3021 3022 3023 3023 3024 3025 3025 3025 3026 3026 3026 3026 3026 3026 3026 3026 3025 3025 3025 3024 3024 3024 3024 3024 3024 3024 3024 3024 3024 3024 3024 3024 3024 3024 3024 3023 3023 3023 3023 3022 3022 3021 3021 3020 3019 3019 3018 3017 3017 3016 3015 3014 3014 3013 3012 3011 3010 3010 3009
3013 3013 3014 3015 3016 3017 3018 3019 3020 3021 3022 3023 3023 3024 3024 3025 3025 3025 3025 3025 3025 3025 3025 3025 3025 3024 3024 3024 3023 3023 3023 3023 3023 3024 3024 3024 3024 3023 3023 3023 3023 3023 3022 3022 3022 3021 3021 3020 3020 3019 3019 3018 3018 3017 3016 3016 3015 3014 3013 3013 3012 3011 3010 3009 3008 3008 3007 3006 3005
3012 3013 3014 3015 3016 3017 3018 3019 3020 3021 3022 3023 3023 3023 3024 3024 3024 3024 3024 3024 3024 3024 3024 3024 3024 3023 3023 3023 3023 3023 3023 3023 3023 3023 3023 3023 3022 3022 3022 3022 3021 3021 3020 3020 3019 3019 3018 3018 3017 3017 3016 3016 3015 3014 3013 3013 3012 3011 3010 3009 3008 3007 3006 3005 3004 3003 3003 3002 3001
3013 3014 3015 3016 3017 3018 3019 3020 3021 3021 3022 3023 3023 3023 3023 3023 3023 3023 3023 3023 3023 3023 3023 3023 3023 3023 3022 3022 3022 3022 3022 3022 3022 3021 3021 3021 3021 3020 3020 3020 3019 3019 3018 3018 3017 3017 3016 3015 3014 3014 3013 3012 3012 3011 3010 3009 3008 3007 3006 3005 3004 3003 3002 3001 3000 2999 2998 2997 2996
3014 3015 3016 3017 3018 3018 3019 3020 3021 3021 3022 3022 3022 3022 3022 3022 3022 3022 3022 3022 3022 3022 3022 3022 3022 3022 3021 3021 3021 3021 3021 3020 3020 3020 3020 3019 3019 3018 3018 3018 3017 3016 3016 3015 3014 3013 3013 3012 3011 3010 3010 3009 3008 3007 3006 3005 3004 3003 3003 3002 3000 2999 2998 2997 2996 2995 2994 2993 2991
3015 3016 3017 3018 3018 3019 3019 3020 3020 3020 3021 3021 3021 3021 3021 3021 3021 3021 3021 3021 3021 3021 3021 3021 3021 3020 3020 3020 3020 3020 3019 3019 3019 3018 3018 3017 3017 3016 3016 3015 3014 3013 3013 3012 3011 3010 3009 3008 3008 3007 3006 3005 3004 3003 3003 3002 3001 3000 2999 2998 2997 2995 2994 2993 2992 2991 2989 2988 2987
3016 3016 3017 3018 3018 3018 3019 3019 3019 3019 3020 3020 3020 3020 3020 3020 3020 3020 3020 3020 3020 3020 3020 3020 3019 3019 3019 3019 3018 3018 3018 3017 3017 3016 3015 3015 3014 3013 3013 3012 3011 3010 3009 3008 3008 3007 3006 3005 3004 3003 3003 3002 3001 3000 2999 2998 2997 2996 2995 2993 2993 2991 2990 2989 2987 2986 2985 2983 2982
3016 3016 3017 3017 3018 3018 3018 3018 3019 3019 3019 3019 3019 3020 3020 3020 3020 3020 3019 3019 3019 3019 3019 3018 3018 3018 3018 3017 3016 3016 3015 3014 3014 3013 3013 3012 3011 3010 3009 3009 3008 3007 3006 3005 3004 3003 3003 3002 3001 3000 2999 2998 2997 2996 2995 2994 2993 2992 2991 2989 2988 2987 2985 2984 2983 2981 2980 2978 2977
3015 3016 3017 3017 3018 3018 3018 3018 3019 3019 3019 3019 3019 3019 3019 3019 3019 3019 3019 3018 3018 3018 3017 3017 3016 3016 3015 3014 3014 3013 3013 3012 3011 3010 3010 3009 3008 3008 3007 3006 3005 3004 3003 3002 3001 3000 2999 2998 2998 2996 2995 2994 2993 2992 2991 2990 2989 2988 2986 2985 2983 2982 2980 2979 2978 2976 2975 2973 2972
3016 3016 3017 3017 3018 3018 3018 3018 3019 3019 3019 3019 3019 3019 3018 3018 3018 3018 3017 3017 3016 3016 3015 3015 3014 3013 3013 3012 3012 3011 3010 3009 3009 3008 3008 3007 3006 3005 3004 3003 3003 3002 3001 2999 2998 2997 2996 2995 2994 2993 2991 2990 2988 2987 2986 2984 2983 2982 2981 2980 2978 2977 2975 2974 2972 2971 2969 2968 2967
3016 3017 3017 3018 3018 3018 3018 3018 3018 3018 3018 3018 3018 3018 3017 3017 3016 3016 3015 3015 3014 3014 3013 3013 3012 3011 3011 3010 3010 3009 3008 3008 3007 3006 3005 3005 3004 3003 3002 3001 3000 2999 2998 2996 2995 2994 2992 2991 2989 2988 2986 2985 2983 2982 2981 2979 2978 2977 2975 2974 2973 2972 2970 2969 2967 2966 2964 2963 2962
3017 3017 3017 3018 3018 3018 3018 3018 3017 3017 3017 3017 3016 3016 3015 3015 3014 3014 3013 3013 3013 3012 3012 3011 3010 3010 3009 3008 3008 3007 3006 3006 3005 3004 3003 3002 3001 3000 2999 2998 2996 2995 2994 2992 2991 2990 2988 2987 2985 2983 2982 2980 2979 2977 2976 2974 2973 2972 2970 2969 2968 2967 2965 2964 2962 2961 2959 2958 2957
3017 3017 3017 3017 3017 3017 3017 3016 3016 3016 3015 3015 3015 3014 3014 3013 3013 3013 3012 3012 3011 3011 3010 3009 3008 3008 3007 3006 3006 3005 3004 3003 3002 3001 3000 2999 2998 2997 2995 2994 2993 2991 2990 2988 2987 2986 2984 2983 2981 2979 2978 2976 2974 2973 2971 2970 2968 2967 2966 2964 2963 2962 2961 2959 2958 2957 2955 2954 2952
3016 3016 3016 3016 3016 3016 3016 3015 3015 3015 3014 3014 3013 3013 3013 3012 3012 3011 3010 3010 3009 3009 3008 3007 3006 3006 3005 3004 3003 3002 3001 3000 2999 2998 2997 2996 2995 2993 2992 2991 2989 2988 2986 2984 2983 2982 2980 2978 2977 2975 2973 2972 2970 2968 2967 2966 2964 2963 2962 2960 2959 2958 2956 2955 2953 2952 2951 2949 2948
3016 3016 3015 3015 3015 3015 3014 3014 3014 3013 3013 3013 3012 3012 3011 3010 3010 3009 3008 3008 3007 3007 3006 3005 3004 3003 3002 3001 3000 2999 2998 2997 2996 2995 2993 2993 2991 2990 2989 2987 2986 2984 2982 2981 2979 2978 2976 2975 2973 2971 2969 2968 2966 2964 2963 2962 2960 2959 2957 2956 2955 2953 2952 2951 2949 2948 2947 2945 2944
3015 3015 3014 3014 3014 3013 3013 3013 3012 3012 3012 3011 3010 3010 3009 3008 3008 3007 3007 3006 3005 3004 3003 3002 3002 3001 3000 2998 2998 2996 2995 2994 2993 2992 2990 2989 2988 2987 2985 2984 2983 2981 2979 2977 2975 2973 2972 2971 2969 2967 2966 2964 2962 2960 2959 2958 2956 2954 2953 2952 2951 2949 2948 2947 2945 2944 2943 2941 2940
3014 3013 3013 3013 3013 3012 3012 3011 3011 3010 3010 3009 3009 3008 3008 3007 3006 3005 3004 3004 3003 3002 3001 3000 2999 2998 2997 2996 2994 2993 2992 2991 2990 2988 2987 2986 2984 2983 2982 2981 2979 2978 2975 2973 2972 2970 2968 2967 2965 2963 2962 2960 2958 2956 2955 2953 2952 2950 2949 2948 2946 2945 2944 2942 2941 2939 2938 2937 2936
3013 3013 3012 3012 3012 3011 3011 3010 3009 3009 3008 3008 3007 3006 3006 3005 3004 3003 3002 3002 3001 3000 2998 2998 2996 2995 2994 2993 2992 2991 2989 2988 2986 2985 2984 2983 2981 2980 2978 2977 2976 2974 2972 2970 2968 2966 2965 2963 2961 2959 2958 2956 2954 2952 2950 2948 2947 2946 2944 2943 2942 2940 2938 2937 2936 2934 2933 2932 2931
3012 3012 3011 3011 3010 3010 3009 3009 3008 3008 3007 3006 3005 3004 3004 3003 3002 3001 3000 2999 2998 2998 2997 2995 2994 2993 2992 2991 2989 2988 2987 2985 2983 2981 2980 2978 2977 2976 2974 2973 2972 2970 2968 2967 2964 2963 2961 2959 2957 2955 2953 2951 2949 2947 2945 2943 2942 2940 2939 2937 2936 2934 2933 2931 2930 2929 2927 2926 2925
3011 3011 3010 3009 3009 3008 3008 3007 3007 3006 3005 3004 3004 3003 3002 3001 3000 2999 2998 2998 2996 2995 2994 2993 2992 2990 2989 2988 2986 2985 2983 2982 2980 2978 2976 2974 2973 2971 2970 2968 2967 2966 2964 2962 2960 2958 2956 2954 2952 2950 2948 2946 2944 2942 2940 2938 2936 2934 2933 2931 2930 2928 2927 2925 2924 2923 2922 2920 2919
3010 3009 3009 3008 3008 3007 3007 3006 3005 3004 3004 3003 3002 3001 3000 2999 2998 2997 2996 2995 2993 2993 2991 2990 2988 2987 2985 2984 2982 2981 2979 2978 2976 2974 2972 2970 2968 2967 2965 2963 2962 2960 2959 2957 2955 2953 2951 2949 2947 2945 2943 2941 2938 2936 2934 2932 2931 2929 2927 2926 2924 2923 2921 2919 2918 2917 2916 2915 2914